Satellite: FAST1-2
Catalog number: 37227
Epoch time:      10356.49475391
Element set:    0034
Inclination:      071.9731 deg
RA of node:       068.7786 deg
Eccentricity:    0.0019196
Arg of perigee:   250.4101 deg
Mean anomaly:     109.4988 deg
Mean motion:   14.76378899 rev/day
Decay rate:       1.11e-06 rev/day^2
Epoch rev:           00478
Checksum:              330

/EX
SB KEPS @ AMSAT  $ORB10357.W
Orbital Elements  10357.WEATHER

HR AMSAT ORBITAL ELEMENTS FOR WEATHER SATELLITES
FROM WA5QGD FORT WORTH,TX December 23, 2010
Send Subscribe/unsubscribe to KEPS at http://www.amsat.org/mailman/listinfo/kep
BID: ORB10357.W
TO ALL RADIO AMATEURS BT

Satellite: NOAA-10
Catalog number: 16969
Epoch time:      10357.13160967
Element set:     327
Inclination:      098.6381 deg
RA of node:       024.1480 deg
Eccentricity:    0.0012832
Arg of perigee:   023.0209 deg
Mean anomaly:     337.1539 deg
Mean motion:   14.27438271 rev/day
Decay rate:       -5.8e-07 rev/day^2
Epoch rev:           26253
Checksum:              292

Satellite: NOAA-11
Catalog number: 19531
Epoch time:      10357.33084668
Element set:     334
Inclination:      098.7628 deg
RA of node:       083.0763 deg
Eccentricity:    0.0010919
Arg of perigee:   334.1991 deg
Mean anomaly:     025.8630 deg
Mean motion:   14.14898448 rev/day
Decay rate:      -2.36e-06 rev/day^2
Epoch rev:           14788
Checksum:              327

Satellite: NOAA-12
Catalog number: 21263
Epoch time:      10357.28329721
Element set:     822
Inclination:      098.7584 deg
RA of node:       010.3666 deg
Eccentricity:    0.0012189
Arg of perigee:   342.1571 deg
Mean anomaly:     017.9184 deg
Mean motion:   14.25675789 rev/day
Decay rate:       1.94e-06 rev/day^2
Epoch rev:            1934
Checksum:              311

Satellite: MET-3/5
Catalog number: 21655
Epoch time:      10356.88665390
Element set:    0996
Inclination:      082.5541 deg
RA of node:       175.3196 deg
Eccentricity:    0.0012516
Arg of perigee:   235.4611 deg
Mean anomaly:     124.5295 deg
Mean motion:   13.17024344 rev/day
Decay rate:        5.1e-07 rev/day^2
Epoch rev:           93051
Checksum:              297

Satellite: MET-2/21
Catalog number: 22782
Epoch time:      10356.81255917
Element set:     971
Inclination:      082.5483 deg
RA of node:       102.8171 deg
Eccentricity:    0.0021206
Arg of perigee:   231.2270 deg
Mean anomaly:     128.6999 deg
Mean motion:   13.83652956 rev/day
Decay rate:        4.0e-08 rev/day^2
Epoch rev:           87416
Checksum:              308

Satellite: OKEAN-4
Catalog number: 23317
Epoch time:      10356.65462377
Element set:    0428
Inclination:      082.5382 deg
RA of node:       177.9412 deg
Eccentricity:    0.0021837
Arg of perigee:   345.3121 deg
Mean anomaly:     014.7432 deg
Mean motion:   14.82912217 rev/day
Decay rate:       1.92e-06 rev/day^2
Epoch rev:           87438
Checksum:              298

Satellite: NOAA-14
Catalog number: 23455
Epoch time:      10357.45464575
Element set:     315
Inclination:      098.8665 deg
RA of node:       076.7549 deg
Eccentricity:    0.0010193
Arg of perigee:   061.1786 deg
Mean anomaly:     299.0412 deg
Mean motion:   14.13801891 rev/day
Decay rate:       -9.2e-07 rev/day^2
Epoch rev:           82424
Checksum:              318

Satellite: NOAA-15
Catalog number: 25338
Epoch time:      10357.40336895
Element set:     642
Inclination:      098.6376 deg
RA of node:       341.1236 deg
Eccentricity:    0.0009795
Arg of perigee:   242.7805 deg
Mean anomaly:     117.2382 deg
Mean motion:   14.24874212 rev/day
Decay rate:        9.2e-07 rev/day^2
Epoch rev:           65569
Checksum:              322

Satellite: RESURS
Catalog number: 25394
Epoch time:      10356.55976060
Element set:    0683
Inclination:      098.2988 deg
RA of node:       004.3246 deg
Eccentricity:    0.0002248
Arg of perigee:   046.8495 deg
Mean anomaly:     313.2868 deg
Mean motion:   14.24219665 rev/day
Decay rate:        2.1e-07 rev/day^2
Epoch rev:           64716
Checksum:              316

Satellite: FENGYUN1
Catalog number: 25730
Epoch time:      10356.86354361
Element set:    0216
Inclination:      098.8031 deg
RA of node:       317.0866 deg
Eccentricity:    0.0021173
Arg of perigee:   086.3553 deg
Mean anomaly:     273.9978 deg
Mean motion:   14.08487535 rev/day
Decay rate:       8.91e-06 rev/day^2
Epoch rev:           59824
Checksum:              327

Satellite: OKEAN-0
Catalog number: 25860
Epoch time:      10356.70050888
Element set:    0184
Inclination:      097.8593 deg
RA of node:       323.2723 deg
Eccentricity:    0.0001123
Arg of perigee:   111.5564 deg
Mean anomaly:     248.5764 deg
Mean motion:   14.73695310 rev/day
Decay rate:       1.39e-06 rev/day^2
Epoch rev:           61466
Checksum:              299

Satellite: NOAA-16
Catalog number: 26536
Epoch time:      10357.41779547
Element set:     121
Inclination:      099.1588 deg
RA of node:       019.2399 deg
Eccentricity:    0.0010818
Arg of perigee:   162.7932 deg
Mean anomaly:     197.3631 deg
Mean motion:   14.12590216 rev/day
Decay rate:        8.5e-07 rev/day^2
Epoch rev:           52854
Checksum:              323

